Time,TemperatureF,DewpointF,PressureIn,WindDirection,WindDirectionDegrees,WindSpeedMPH,WindSpeedGustMPH,Humidity,HourlyPrecipIn,Conditions,Clouds,dailyrainin,SoftwareType,DateUTC
2013-05-06 00:02:00,47.0,42.0,29.91,West,273,0.0,3.0,84,0.00,,,0.01,,2013-05-06 05:02:00,
2013-05-06 00:12:00,47.0,42.0,29.91,West,273,0.0,3.0,84,0.00,,,0.01,,2013-05-06 05:12:00,
2013-05-06 00:22:00,48.0,44.0,29.91,WSW,258,0.0,3.0,85,0.00,,,0.01,,2013-05-06 05:22:00,
2013-05-06 00:32:00,47.0,43.0,29.91,WSW,245,0.0,3.0,86,0.00,,,0.01,,2013-05-06 05:32:00,
2013-05-06 00:42:00,47.0,43.0,29.91,WSW,245,0.0,3.0,86,0.00,,,0.01,,2013-05-06 05:42:00,
2013-05-06 00:52:00,47.0,43.0,29.91,WNW,285,0.0,4.0,87,0.00,,,0.01,,2013-05-06 05:52:00,
2013-05-06 01:02:00,47.0,44.0,29.91,NW,304,0.0,3.0,88,0.00,,,0.01,,2013-05-06 06:02:00,
2013-05-06 01:12:00,47.0,44.0,29.91,NW,304,0.0,3.0,88,0.00,,,0.01,,2013-05-06 06:12:00,
2013-05-06 01:21:00,47.0,44.0,29.91,West,264,0.0,3.0,89,0.00,,,0.01,,2013-05-06 06:21:00,
2013-05-06 01:32:00,47.0,44.0,29.90,WNW,285,0.0,4.0,90,0.00,,,0.01,,2013-05-06 06:32:00,
2013-05-06 01:42:00,47.0,44.0,29.90,WNW,285,0.0,4.0,90,0.00,,,0.01,,2013-05-06 06:42:00,
2013-05-06 01:52:00,46.0,44.0,29.90,WNW,292,0.0,3.0,91,0.00,,,0.01,,2013-05-06 06:52:00,
2013-05-06 02:01:00,46.0,44.0,29.89,West,281,0.0,2.0,91,0.00,,,0.01,,2013-05-06 07:01:00,
2013-05-06 02:11:00,46.0,44.0,29.89,West,281,0.0,2.0,91,0.00,,,0.01,,2013-05-06 07:11:00,
2013-05-06 02:22:00,46.0,44.0,29.89,West,280,0.0,3.0,92,0.00,,,0.01,,2013-05-06 07:22:00,
2013-05-06 02:32:00,46.0,44.0,29.88,WNW,285,0.0,4.0,92,0.00,,,0.01,,2013-05-06 07:32:00,
2013-05-06 02:42:00,46.0,44.0,29.88,WNW,285,0.0,4.0,92,0.00,,,0.01,,2013-05-06 07:42:00,
2013-05-06 02:52:00,46.0,44.0,29.88,WNW,288,0.0,3.0,92,0.00,,,0.01,,2013-05-06 07:52:00,
2013-05-06 03:02:00,46.0,44.0,29.88,WNW,282,0.0,3.0,92,0.00,,,0.01,,2013-05-06 08:02:00,
2013-05-06 03:12:00,46.0,44.0,29.88,WNW,282,0.0,3.0,92,0.00,,,0.01,,2013-05-06 08:12:00,
2013-05-06 03:22:00,46.0,44.0,29.88,WNW,298,1.0,3.0,92,0.00,,,0.01,,2013-05-06 08:22:00,
2013-05-06 03:32:00,46.0,44.0,29.89,WNW,287,0.0,4.0,93,0.00,,,0.01,,2013-05-06 08:32:00,
2013-05-06 03:42:00,46.0,44.0,29.89,WNW,287,0.0,4.0,93,0.00,,,0.01,,2013-05-06 08:42:00,
2013-05-06 03:52:00,46.0,44.0,29.89,NW,325,0.0,3.0,92,0.00,,,0.01,,2013-05-06 08:52:00,
2013-05-06 04:01:00,46.0,44.0,29.90,West,262,0.0,2.0,92,0.00,,,0.01,,2013-05-06 09:01:00,
2013-05-06 04:11:00,46.0,44.0,29.90,West,262,0.0,2.0,92,0.00,,,0.01,,2013-05-06 09:11:00,
2013-05-06 04:22:00,45.0,43.0,29.90,West,273,0.0,0.0,93,0.00,,,0.01,,2013-05-06 09:22:00,
2013-05-06 04:33:00,45.0,43.0,29.90,WSW,240,0.0,2.0,94,0.00,,,0.01,,2013-05-06 09:33:00,
2013-05-06 04:43:00,45.0,43.0,29.90,WSW,240,0.0,2.0,94,0.00,,,0.01,,2013-05-06 09:43:00,
2013-05-06 04:53:00,45.0,43.0,29.90,WSW,256,0.0,2.0,94,0.00,,,0.01,,2013-05-06 09:53:00,
2013-05-06 05:02:00,45.0,43.0,29.90,WNW,283,1.0,4.0,94,0.00,,,0.01,,2013-05-06 10:02:00,
2013-05-06 05:12:00,45.0,43.0,29.90,WNW,283,1.0,4.0,94,0.00,,,0.01,,2013-05-06 10:12:00,
2013-05-06 05:22:00,45.0,43.0,29.91,West,266,0.0,3.0,93,0.00,,,0.00,,2013-05-06 10:22:00,
2013-05-06 05:33:00,45.0,43.0,29.91,West,278,0.0,1.0,93,0.00,,,0.00,,2013-05-06 10:33:00,
2013-05-06 05:42:00,45.0,43.0,29.91,West,278,0.0,1.0,93,0.00,,,0.00,,2013-05-06 10:42:00,
2013-05-06 05:52:00,45.0,43.0,29.91,West,277,0.0,4.0,93,0.00,,,0.00,,2013-05-06 10:52:00,
2013-05-06 06:02:00,45.0,43.0,29.91,West,278,0.0,4.0,93,0.00,,,0.00,,2013-05-06 11:02:00,
2013-05-06 06:12:00,45.0,43.0,29.91,West,278,0.0,4.0,93,0.00,,,0.00,,2013-05-06 11:12:00,
2013-05-06 06:22:00,45.0,43.0,29.92,WSW,255,0.0,2.0,93,0.00,,,0.00,,2013-05-06 11:22:00,
2013-05-06 06:32:00,45.0,43.0,29.93,WSW,238,0.0,0.0,93,0.00,,,0.00,,2013-05-06 11:32:00,
2013-05-06 06:42:00,45.0,43.0,29.93,WSW,238,0.0,0.0,93,0.00,,,0.00,,2013-05-06 11:42:00,
2013-05-06 06:52:00,45.0,43.0,29.93,WSW,238,0.0,1.0,94,0.00,,,0.00,,2013-05-06 11:52:00,
2013-05-06 07:01:00,46.0,44.0,29.93,WNW,283,0.0,3.0,93,0.00,,,0.00,,2013-05-06 12:01:00,
2013-05-06 07:12:00,46.0,44.0,29.93,WNW,283,0.0,3.0,93,0.00,,,0.00,,2013-05-06 12:12:00,
2013-05-06 07:22:00,47.0,45.0,29.93,West,267,0.0,1.0,91,0.00,,,0.00,,2013-05-06 12:22:00,
2013-05-06 07:32:00,48.0,45.0,29.94,West,277,1.0,4.0,89,0.00,,,0.00,,2013-05-06 12:32:00,
2013-05-06 07:42:00,48.0,45.0,29.94,West,277,1.0,4.0,89,0.00,,,0.00,,2013-05-06 12:42:00,
2013-05-06 07:52:00,50.0,47.0,29.94,West,278,1.0,5.0,88,0.00,,,0.00,,2013-05-06 12:52:00,
2013-05-06 08:01:00,51.0,47.0,29.94,WNW,302,1.0,6.0,85,0.00,,,0.00,,2013-05-06 13:01:00,
2013-05-06 08:11:00,51.0,47.0,29.94,WNW,302,1.0,6.0,85,0.00,,,0.00,,2013-05-06 13:11:00,
2013-05-06 08:21:00,52.0,47.0,29.94,WNW,290,1.0,6.0,82,0.00,,,0.00,,2013-05-06 13:21:00,
2013-05-06 08:32:00,54.0,48.0,29.94,WNW,283,1.0,7.0,80,0.00,,,0.00,,2013-05-06 13:32:00,
2013-05-06 08:42:00,54.0,48.0,29.94,WNW,283,1.0,7.0,80,0.00,,,0.00,,2013-05-06 13:42:00,
2013-05-06 08:52:00,55.0,47.0,29.94,WSW,253,3.0,8.0,74,0.00,,,0.00,,2013-05-06 13:52:00,
2013-05-06 09:01:00,56.0,47.0,29.95,WSW,245,3.0,7.0,73,0.00,,,0.00,,2013-05-06 14:01:00,
2013-05-06 09:11:00,56.0,47.0,29.95,WSW,245,3.0,7.0,73,0.00,,,0.00,,2013-05-06 14:11:00,
2013-05-06 09:21:00,58.0,49.0,29.95,SW,215,1.0,6.0,71,0.00,,,0.00,,2013-05-06 14:21:00,
2013-05-06 09:32:00,58.0,47.0,29.94,WSW,256,3.0,8.0,67,0.00,,,0.00,,2013-05-06 14:32:00,
2013-05-06 09:42:00,58.0,47.0,29.94,WSW,256,3.0,8.0,67,0.00,,,0.00,,2013-05-06 14:42:00,
2013-05-06 09:52:00,60.0,48.0,29.94,West,277,3.0,9.0,64,0.00,,,0.00,,2013-05-06 14:52:00,
2013-05-06 10:01:00,60.0,48.0,29.95,WSW,249,3.0,8.0,64,0.00,,,0.00,,2013-05-06 15:01:00,
2013-05-06 10:11:00,60.0,48.0,29.95,WSW,249,3.0,8.0,64,0.00,,,0.00,,2013-05-06 15:11:00,
2013-05-06 10:21:00,61.0,49.0,29.95,SW,235,2.0,13.0,64,0.00,,,0.00,,2013-05-06 15:21:00,
2013-05-06 10:33:00,60.0,48.0,29.95,WNW,284,4.0,8.0,65,0.00,,,0.00,,2013-05-06 15:33:00,
2013-05-06 10:42:00,60.0,48.0,29.95,WNW,284,4.0,8.0,65,0.00,,,0.00,,2013-05-06 15:42:00,
2013-05-06 10:53:00,61.0,48.0,29.95,WSW,243,4.0,9.0,62,0.00,,,0.00,,2013-05-06 15:53:00,
2013-05-06 11:03:00,61.0,48.0,29.95,WNW,293,2.0,12.0,62,0.00,,,0.00,,2013-05-06 16:03:00,
2013-05-06 11:13:00,61.0,48.0,29.95,WNW,293,2.0,12.0,62,0.00,,,0.00,,2013-05-06 16:13:00,
2013-05-06 11:23:00,62.0,48.0,29.95,SW,218,4.0,15.0,60,0.00,,,0.00,,2013-05-06 16:23:00,
2013-05-06 11:33:00,63.0,48.0,29.94,SW,235,5.0,11.0,57,0.00,,,0.00,,2013-05-06 16:33:00,
2013-05-06 11:42:00,63.0,48.0,29.94,SW,235,5.0,11.0,57,0.00,,,0.00,,2013-05-06 16:42:00,
2013-05-06 11:52:00,63.0,49.0,29.94,SW,232,4.0,10.0,60,0.00,,,0.00,,2013-05-06 16:52:00,
2013-05-06 12:03:00,63.0,48.0,29.93,WSW,250,5.0,10.0,57,0.00,,,0.00,,2013-05-06 17:03:00,
2013-05-06 12:12:00,63.0,48.0,29.93,WSW,250,5.0,10.0,57,0.00,,,0.00,,2013-05-06 17:12:00,
2013-05-06 12:23:00,64.0,48.0,29.93,WNW,295,3.0,7.0,56,0.00,,,0.00,,2013-05-06 17:23:00,
2013-05-06 12:31:00,64.0,48.0,29.93,WSW,238,4.0,11.0,56,0.00,,,0.00,,2013-05-06 17:31:00,
2013-05-06 12:42:00,64.0,48.0,29.93,WSW,238,4.0,11.0,56,0.00,,,0.00,,2013-05-06 17:42:00,
2013-05-06 12:52:00,64.0,48.0,29.92,SSW,208,5.0,14.0,57,0.00,,,0.00,,2013-05-06 17:52:00,
2013-05-06 13:01:00,64.0,49.0,29.92,WSW,257,4.0,14.0,59,0.00,,,0.00,,2013-05-06 18:01:00,
2013-05-06 13:12:00,64.0,49.0,29.92,WSW,257,4.0,14.0,59,0.00,,,0.00,,2013-05-06 18:12:00,
2013-05-06 13:22:00,65.0,51.0,29.92,WSW,255,4.0,13.0,60,0.00,,,0.00,,2013-05-06 18:22:00,
2013-05-06 13:32:00,65.0,51.0,29.92,SSW,212,2.0,8.0,60,0.00,,,0.00,,2013-05-06 18:32:00,
2013-05-06 13:43:00,65.0,51.0,29.92,SSW,212,2.0,8.0,60,0.00,,,0.00,,2013-05-06 18:43:00,
2013-05-06 13:52:00,65.0,50.0,29.91,West,281,3.0,14.0,59,0.00,,,0.00,,2013-05-06 18:52:00,
2013-05-06 14:01:00,66.0,51.0,29.91,NW,321,6.0,13.0,58,0.00,,,0.00,,2013-05-06 19:01:00,
2013-05-06 14:11:00,66.0,51.0,29.91,NW,321,6.0,13.0,58,0.00,,,0.00,,2013-05-06 19:11:00,
2013-05-06 14:22:00,65.0,51.0,29.91,West,264,3.0,9.0,60,0.00,,,0.00,,2013-05-06 19:22:00,
2013-05-06 14:32:00,64.0,50.0,29.90,SW,235,4.0,11.0,60,0.00,,,0.00,,2013-05-06 19:32:00,
2013-05-06 14:42:00,64.0,50.0,29.90,SW,235,4.0,11.0,60,0.00,,,0.00,,2013-05-06 19:42:00,
2013-05-06 14:52:00,64.0,50.0,29.90,WSW,238,4.0,9.0,61,0.00,,,0.00,,2013-05-06 19:52:00,
2013-05-06 15:02:00,64.0,49.0,29.89,West,276,4.0,13.0,59,0.00,,,0.00,,2013-05-06 20:02:00,
2013-05-06 15:11:00,64.0,49.0,29.89,West,276,4.0,13.0,59,0.00,,,0.00,,2013-05-06 20:11:00,
2013-05-06 15:21:00,65.0,50.0,29.89,SW,232,3.0,9.0,59,0.00,,,0.00,,2013-05-06 20:21:00,
2013-05-06 15:32:00,65.0,51.0,29.88,West,261,3.0,9.0,61,0.00,,,0.00,,2013-05-06 20:32:00,
2013-05-06 15:42:00,65.0,51.0,29.88,West,261,3.0,9.0,61,0.00,,,0.00,,2013-05-06 20:42:00,
2013-05-06 15:52:00,64.0,50.0,29.88,West,267,2.0,8.0,61,0.00,,,0.00,,2013-05-06 20:52:00,
2013-05-06 16:01:00,63.0,50.0,29.88,West,271,1.0,5.0,63,0.00,,,0.00,,2013-05-06 21:01:00,
2013-05-06 16:11:00,63.0,50.0,29.88,West,271,1.0,5.0,63,0.00,,,0.00,,2013-05-06 21:11:00,
2013-05-06 16:21:00,63.0,51.0,29.88,West,271,1.0,6.0,64,0.00,,,0.00,,2013-05-06 21:21:00,
2013-05-06 16:33:00,63.0,51.0,29.88,WNW,297,1.0,4.0,66,0.00,,,0.00,,2013-05-06 21:33:00,
2013-05-06 16:43:00,63.0,51.0,29.88,WNW,297,1.0,4.0,66,0.00,,,0.00,,2013-05-06 21:43:00,
2013-05-06 16:53:00,63.0,51.0,29.87,WSW,256,2.0,6.0,66,0.00,,,0.00,,2013-05-06 21:53:00,
2013-05-06 17:03:00,63.0,51.0,29.88,West,273,5.0,14.0,66,0.00,,,0.00,,2013-05-06 22:03:00,
2013-05-06 17:12:00,63.0,51.0,29.88,West,273,5.0,14.0,66,0.00,,,0.00,,2013-05-06 22:12:00,
2013-05-06 17:22:00,62.0,50.0,29.88,WSW,255,3.0,12.0,65,0.00,,,0.00,,2013-05-06 22:22:00,
2013-05-06 17:33:00,62.0,51.0,29.88,WNW,298,3.0,9.0,68,0.00,,,0.00,,2013-05-06 22:33:00,
2013-05-06 17:45:00,62.0,51.0,29.88,WNW,298,3.0,9.0,68,0.00,,,0.00,,2013-05-06 22:45:00,
2013-05-06 17:52:00,61.0,52.0,29.88,NW,314,1.0,9.0,72,0.00,,,0.00,,2013-05-06 22:52:00,
2013-05-06 18:03:00,60.0,52.0,29.88,WNW,284,1.0,4.0,76,0.00,,,0.00,,2013-05-06 23:03:00,
2013-05-06 18:12:00,60.0,52.0,29.88,WNW,284,1.0,4.0,76,0.00,,,0.00,,2013-05-06 23:12:00,
2013-05-06 18:22:00,59.0,52.0,29.88,WNW,297,0.0,4.0,78,0.00,,,0.00,,2013-05-06 23:22:00,
2013-05-06 18:32:00,58.0,52.0,29.89,WNW,285,0.0,2.0,80,0.00,,,0.00,,2013-05-06 23:32:00,
2013-05-06 18:42:00,58.0,52.0,29.89,WNW,285,0.0,2.0,80,0.00,,,0.00,,2013-05-06 23:42:00,
2013-05-06 18:52:00,58.0,54.0,29.89,WSW,237,0.0,1.0,85,0.00,,,0.00,,2013-05-06 23:52:00,
2013-05-06 19:01:00,57.0,53.0,29.89,WNW,285,0.0,0.0,88,0.00,,,0.00,,2013-05-07 00:01:00,
2013-05-06 19:12:00,57.0,53.0,29.89,WNW,285,0.0,0.0,88,0.00,,,0.00,,2013-05-07 00:12:00,
2013-05-06 19:21:00,57.0,54.0,29.89,SSW,200,0.0,0.0,90,0.00,,,0.00,,2013-05-07 00:21:00,
2013-05-06 19:32:00,56.0,53.0,29.89,WSW,253,0.0,1.0,91,0.00,,,0.00,,2013-05-07 00:32:00,
2013-05-06 19:42:00,56.0,53.0,29.89,WSW,253,0.0,1.0,91,0.00,,,0.00,,2013-05-07 00:42:00,
2013-05-06 19:52:00,56.0,54.0,29.90,West,262,0.0,1.0,92,0.00,,,0.00,,2013-05-07 00:52:00,
2013-05-06 20:01:00,56.0,53.0,29.91,WSW,255,0.0,2.0,91,0.00,,,0.00,,2013-05-07 01:01:00,
2013-05-06 20:11:00,56.0,53.0,29.91,WSW,255,0.0,2.0,91,0.00,,,0.00,,2013-05-07 01:11:00,
2013-05-06 20:21:00,56.0,53.0,29.91,South,186,0.0,3.0,90,0.00,,,0.00,,2013-05-07 01:21:00,
2013-05-06 20:32:00,56.0,53.0,29.91,West,260,0.0,3.0,90,0.00,,,0.00,,2013-05-07 01:32:00,
2013-05-06 20:42:00,56.0,53.0,29.91,West,260,0.0,3.0,90,0.00,,,0.00,,2013-05-07 01:42:00,
2013-05-06 20:53:00,56.0,53.0,29.91,WSW,252,0.0,2.0,90,0.00,,,0.00,,2013-05-07 01:53:00,
2013-05-06 21:02:00,56.0,53.0,29.92,WSW,253,0.0,1.0,91,0.00,,,0.00,,2013-05-07 02:02:00,
2013-05-06 21:11:00,56.0,53.0,29.92,WSW,253,0.0,1.0,91,0.00,,,0.00,,2013-05-07 02:11:00,
2013-05-06 21:22:00,56.0,53.0,29.92,WSW,252,0.0,3.0,91,0.00,,,0.00,,2013-05-07 02:22:00,
2013-05-06 21:32:00,56.0,53.0,29.92,WSW,248,0.0,1.0,91,0.00,,,0.00,,2013-05-07 02:32:00,
2013-05-06 21:42:00,56.0,53.0,29.92,WSW,248,0.0,1.0,91,0.00,,,0.00,,2013-05-07 02:42:00,
2013-05-06 21:52:00,57.0,54.0,29.92,WSW,239,1.0,4.0,90,0.00,,,0.00,,2013-05-07 02:52:00,
2013-05-06 22:02:00,56.0,53.0,29.92,West,276,2.0,4.0,91,0.00,,,0.00,,2013-05-07 03:02:00,
2013-05-06 22:11:00,56.0,53.0,29.92,West,276,2.0,4.0,91,0.00,,,0.00,,2013-05-07 03:11:00,
2013-05-06 22:22:00,56.0,54.0,29.92,WSW,242,0.0,3.0,92,0.00,,,0.00,,2013-05-07 03:22:00,
2013-05-06 22:32:00,55.0,53.0,29.92,WNW,285,0.0,2.0,93,0.00,,,0.00,,2013-05-07 03:32:00,
2013-05-06 22:43:00,55.0,53.0,29.92,WNW,285,0.0,2.0,93,0.00,,,0.00,,2013-05-07 03:43:00,
2013-05-06 22:53:00,55.0,53.0,29.92,WSW,240,0.0,2.0,94,0.00,,,0.00,,2013-05-07 03:53:00,
2013-05-06 23:03:00,55.0,53.0,29.91,West,274,0.0,0.0,94,0.00,,,0.00,,2013-05-07 04:03:00,
2013-05-06 23:12:00,55.0,53.0,29.91,West,274,0.0,0.0,94,0.00,,,0.00,,2013-05-07 04:12:00,
2013-05-06 23:23:00,55.0,53.0,29.91,WNW,283,0.0,1.0,94,0.00,,,0.00,,2013-05-07 04:23:00,
2013-05-06 23:33:00,55.0,53.0,29.91,WSW,238,0.0,1.0,94,0.00,,,0.00,,2013-05-07 04:33:00,
2013-05-06 23:42:00,55.0,53.0,29.91,WSW,238,0.0,1.0,94,0.00,,,0.00,,2013-05-07 04:42:00,
2013-05-06 23:53:00,55.0,54.0,29.91,WSW,238,0.0,1.0,95,0.00,,,0.00,,2013-05-07 04:53:00,